Location: Cisewo
(53.3833°N, 14.9000°E)
Time: 11:45:42
(UTC+00:00)

Cosmos 1953 Rocket - Pass Details

Date: 18 April 2021
Orbit: 603 x 636 km, 82.5° (Epoch: 14 May)

Event Time Altitude Azimuth Distance (km) Brightness Sun altitude
Rises 18:54:26 0° 345° (NNW) 2,902 7.7 -7.3°
Reaches altitude 10° 18:56:42 10° 341° (NNW) 1,986 7.0 -7.6°
Maximum altitude 19:01:00 55° 265° (W) 742 4.3 -8.1°
Drops below altitude 10° 19:05:12 10° 188° (S) 1,954 5.9 -8.6°
Sets 19:07:26 0° 184° (S) 2,850 6.7 -8.9°
